Flag for Poland Weather past 2 weeks in Olsztyn, Poland

Now
52 °F

Clear.


Feels Like: 52 °F
Forecast: 48 / 69 °F
Wind: 1 mph from South

Location: Ketrzyn

Current Time: Aug 21, 2014 at 11:03:52 PM

Latest Report: Aug 21, 2014 at 10:00 PM


Visibility: 31 mi

Pressure: 29.97 "Hg

Humidity: 74%

Dew point: 44 °F

Location of OlsztynLocation

Historic Weather in Olsztyn — Graph

°F

Olsztyn temperature yesterday

Maximum temperature yesterday: 67 °F (at 2:00 PM)
Minimum temperature yesterday: 51 °F (at 11:00 PM)
Average temperature yesterday: 59 °F

Past Weeks' High & Low Weather Summary

 TemperatureHumidityPressure
High85 °F (Aug 11, 1:00 PM)97% (Aug 9, 3:00 AM)30.00 "Hg (Aug 9, 3:00 AM)
Low49 °F (Aug 21, 5:00 AM)36% (Aug 12, 3:00 PM)29.50 "Hg (Aug 14, 8:00 AM)
Average64 °F75%29.85 "Hg
* Reported Aug 6 9:00 PM — Aug 21 9:00 PM, Olsztyn, Weather by CustomWeather, © 2014

Note: Actual official high and low records may vary slightly from our data, if they occured in-between our weather recording intervals... More about our weather records

Advertising

Olsztyn weather history for previous 24 hours

 ConditionsComfort  
Time TempWeatherWind HumidityBarometerVisibility
9:00 PM
Aug 21
53 °FPassing clouds.2 mph71%29.97 "Hg31 mi
8:00 PM56 °FPassing clouds.1 mph68%29.95 "Hg31 mi
7:00 PM57 °FPartly sunny.5 mph60%29.96 "Hg31 mi
6:00 PM62 °FScattered clouds.5 mph50%29.95 "Hg28 mi
5:00 PM64 °FScattered clouds.5 mph52%29.95 "Hg25 mi
4:00 PM64 °FPartly sunny.6 mph55%29.95 "Hg17 mi
3:00 PM61 °FOvercast.5 mph62%29.96 "Hg19 mi
2:00 PM62 °FOvercast.6 mph61%29.97 "Hg22 mi
1:00 PM62 °FOvercast.5 mph59%29.98 "Hg22 mi
12:00 PM63 °FOvercast.5 mph59%29.98 "Hg19 mi
11:00 AM61 °FOvercast.3 mph63%29.98 "Hg25 mi
10:00 AM58 °FOvercast.3 mph71%29.98 "Hg17 mi
9:00 AM56 °FOvercast.2 mph74%29.97 "Hg18 mi
8:00 AM54 °FOvercast.2 mph79%29.98 "Hg22 mi
7:00 AM53 °FOvercast.2 mph78%29.97 "Hg19 mi
6:00 AM49 °FPartly sunny.2 mph82%29.97 "Hg31 mi
5:00 AM49 °FPassing clouds.2 mph81%29.97 "Hg31 mi
4:00 AM49 °FPassing clouds.2 mph79%29.97 "Hg28 mi
3:00 AM50 °FPassing clouds.2 mph78%29.97 "Hg28 mi
2:00 AM49 °FClear.2 mph76%29.97 "Hg28 mi
1:00 AM49 °FClear.1 mph76%29.96 "Hg31 mi
12:00 AM50 °FClear.2 mph76%29.96 "Hg31 mi
11:00 PM
Aug 20
51 °FPassing clouds.1 mph74%29.95 "Hg31 mi
Weather by CustomWeather, © 2014

See weather overviewHow to use our weather pages